Regional Weather Roundup
Issued by NWS

Home | Current Version | Previous Version | Graphics & Text | Print | Product List | Glossary On
Versions: 1 2 3 4 5 6 7 8 9 10 11 12 13 14 15 16 17 18 19 20 21 22 23 24 25 26 27 28
000
ASUS45 KSLC 281910
RWRUT

UTAH REGIONAL WEATHER ROUNDUP
NATIONAL WEATHER SERVICE SALT LAKE CITY UT
100 PM MDT SUN AUG 28 2016

UTZ001>011-023>025-282000-

NORTHERN UTAH

CITY           SKY/WX    TMP DP  RH WIND       PRES   REMARKS
BRIGHAM CITY     N/A     82  37  19 SW3       30.18F
HILL AFB       SUNNY     82  39  21 VRB2      30.20F
LOGAN          SUNNY     81  39  22 NE5       30.18F
OGDEN          SUNNY     83  38  20 VRB5      30.18S
PROVO AIRPORT  MOSUNNY   81  43  26 VRB5      30.19F
SALT LAKE CITY MOSUNNY   85  39  19 SE7       30.16F
VERNAL         SUNNY     76  43  30 S7        30.24F
WENDOVER       SUNNY     81  36  19 E7        30.17F
HEBER CITY     SUNNY     77  37  24 CALM      30.22F
WEST JORDAN    SUNNY     82  41  23 SE9       30.20S

$$

UTZ012>022-026-027-282000-

SOUTHERN/CENTRAL UTAH

CITY           SKY/WX    TMP DP  RH WIND       PRES   REMARKS
BLANDING       PTSUNNY   65  48  54 W14       30.37S
BRYCE CANYON   SUNNY     67  44  43 VRB7      30.40F
CEDAR CITY     SUNNY     76  42  29 CALM      30.26F
MILFORD        SUNNY     81  42  25 SW8       30.22F
MOAB/CYNLANDS  MOSUNNY   77  48  35 S6        30.21F
PRICE          SUNNY     76  40  27 SE7       30.29F
ST GEORGE      CLEAR     81  54  39 CALM      30.16F

$$

REGIONAL REPORTS     COLORADO/ARIZONA

CITY           SKY/WX    TMP DP  RH WIND       PRES   REMARKS
CRAIG, CO      SUNNY     79  24  13 VRB5      30.27F
GRAND JUNCTION CLOUDY    66  51  58 E6        30.26F
RIFLE          SUNNY     72  48  42 NW8       30.26F
MONTROSE       SUNNY     74  45  35 NW9       30.28F
CORTEZ         CLOUDY    66  50  56 SW8       30.29F
PAGE, AZ       SUNNY     77  50  38 N8        30.21F
GRAND CANYON   MOSUNNY   68  49  50 N8        30.34F
KINGMAN        SUNNY     83  48  29 VRB3      30.15F
FLAGSTAFF      PTSUNNY   68  46  45 VRB5      30.34F

$$

REGIONAL REPORTS    NEVADA/IDAHO/WYOMING

CITY           SKY/WX    TMP DP  RH WIND       PRES   REMARKS
LAS VEGAS, NV  MOSUNNY   87  46  24 VRB5      30.05F
ELY            SUNNY     82  29  14 NE12G17   30.29F
ELKO           SUNNY     84  22  10 S7        30.21F
POCATELLO, ID  SUNNY     83  32  16 W15       30.17F
BURLEY         SUNNY     78  43  28 W12       30.16S
EVANSTON, WY   MOSUNNY   76  25  15 VRB3      30.32F
ROCK SPRINGS   SUNNY     79  21  11 W16G28    30.29F

$$




USA.gov is the U.S. government's official web portal to all federal, state and local government web resources and services.